Tracking 29892 objects as of 21-Nov-2024
HD Live streaming from Space Station
objects crossing your sky now

FENGYUN 1C DEB

Track FENGYUN 1C DEB now!
10-day predictions


NORAD ID: 30718
Int'l Code: 1999-025ASC
Perigee: 786.9 km
Apogee: 875.4 km
Inclination: 98.9 °
Period: 101.4 minutes
Semi major axis: 7202 km
RCS: 0.0177 m2 (small)
Launch date: May 10, 1999
Source: People's Republic of China (PRC)
Launch site: Taiyaun Space Center, China (TSC)

Note: This is SATELLITE DEBRIS
Your satellite tracking list
Your tracking list is empty




NASA's NSSDC Master Catalog

Two Line Element Set (TLE):
1 30718U 99025ASC 24325.85420175  .00006820  00000-0  31407-2 0  9995
2 30718  98.9099  36.4780 0061443 187.8847 172.1369 14.20396597912731
Source of the keplerian elements: AFSPC